[[{"header":{"parameterUnit":"m.s-1","parameterCategory":1,"la1":30.2991,"la2":30.254,"lo1":-89.0895,"lo2":-89.0444,"dy":0.0017,"dx":0.0017,"nx":28,"ny":28,"refTime":"2023-03-30T21:00:00:Z","depth":0,"parameterNumber":2,"parameterNumberName":"U-component_of_WINDS"},"data":[0,0,0,0,0,0,0,0,0,0,0,0,0,0,0,0,0,0,0,0,0,0,0,0,0,0,0,0,0,0,0,0,0,0,0,0,0,0,0,0,0,0,0,0,0,0,0,0,0,0,0,0,0,0,0,0,0,0,3.4416,3.4416,0,3.4446,3.4446,3.4447,3.4442,3.4441,3.4441,3.444,3.4472,3.4474,3.4475,0,0,0,0,0,0,0,0,0,0,0,0,0,3.4356,3.4358,3.4416,3.4416,3.4416,3.4446,3.4446,3.4447,3.4442,3.4441,3.4441,3.444,3.4472,3.4473,3.4475,0,0,0,0,0,0,0,0,0,0,0,0,0,3.4384,3.4358,3.4416,3.4418,3.4418,3.4446,3.4446,3.4447,3.4442,3.4441,3.444,3.444,3.4471,3.4473,3.4475,3.4503,0,0,3.4481,3.4482,0,0,0,0,0,0,0,0,3.4382,3.4386,3.4417,3.4417,3.4418,3.4439,3.4437,3.4466,3.4442,3.4433,3.444,3.4439,3.4462,3.4465,3.4472,3.4505,3.4506,3.4482,3.4483,3.4484,3.4484,0,0,0,0,0,0,0,3.4381,3.4385,3.4428,3.4417,3.4418,3.4418,3.4421,3.4443,3.4452,3.4434,3.4433,3.4437,3.4462,3.447,3.4473,3.4507,3.4481,3.4483,3.4485,3.4485,3.4567,3.4568,0,0,0,0,0,0,3.4378,3.4383,3.4427,3.4429,3.4398,3.442,3.4423,3.4433,3.4451,3.4453,3.4438,3.4437,3.4467,3.4471,3.4474,3.451,3.4484,3.4485,3.4487,3.4566,3.4567,3.4569,0,0,0,0,0,0,3.4377,3.4382,3.4425,3.4406,3.4411,3.4421,3.4433,3.4434,3.4442,3.4454,3.4456,3.4444,3.4467,3.4471,3.4497,3.4511,3.4486,3.4488,3.4565,3.4567,3.4568,3.458,0,0,0,0,0,0,3.4375,3.4381,3.4391,3.4406,3.4413,3.4447,3.4434,3.4435,3.4446,3.4445,3.4461,3.4463,3.4466,3.4494,3.4499,3.4513,3.449,3.4564,3.4566,3.4568,3.4579,3.4582,3.4585,0,0,0,0,0,3.4373,3.4393,3.4392,3.4397,3.4425,3.4447,3.4451,3.4455,3.4447,3.4457,3.4466,3.4462,3.4509,3.4496,3.4502,3.4517,3.4563,3.4565,3.4567,3.4577,3.4581,3.4585,0,0,0,0,0,0,3.4379,3.4395,3.4393,3.4419,3.4432,3.4447,3.446,3.4459,3.4474,3.4473,3.4477,3.4481,3.4507,3.4515,3.4501,3.4547,3.4535,3.4538,3.4541,3.4545,3.4548,3.4545,3.4491,0,0,0,0,0,3.4383,3.4399,3.4413,3.4434,3.4441,3.4449,3.4459,3.4461,3.4475,3.448,3.449,3.4504,3.4522,3.4534,3.4551,3.458,3.4585,3.4594,3.4597,3.4599,3.4602,3.4621,3.4625,3.4576,3.4576,3.4576,0,0,3.4392,3.4403,3.4413,3.4436,3.4446,3.4464,3.4454,3.4473,3.4486,3.4483,3.4508,3.4517,3.4533,3.4561,3.4574,3.4568,3.4617,3.4602,3.4604,3.4605,3.4623,3.4628,3.4632,3.4577,3.4577,3.4577,0,0,3.4417,3.4427,3.4446,3.4458,3.4474,3.448,3.4485,3.45,3.4506,3.4531,3.453,3.4547,3.4577,3.4589,3.46,3.4634,3.4632,3.4639,3.4655,3.4673,3.4677,3.468,3.4694,3.4698,3.4642,3.4642,3.4642,0,3.4426,3.4452,3.4457,3.4476,3.4487,3.4487,3.4508,3.4518,3.4539,3.4547,3.4541,3.4581,3.4591,3.4624,3.4632,3.464,3.4647,3.4637,3.4676,3.468,3.4683,3.4696,3.4701,3.4643,3.4643,3.4643,3.4643,0,3.4463,3.4482,3.4496,3.4517,3.453,3.455,3.4559,3.4572,3.4574,3.4581,3.4608,3.4622,3.4642,3.465,3.4652,3.4684,3.468,3.4675,3.4663,3.4688,3.4701,3.4705,3.4644,3.4644,3.4644,3.4643,0,0,3.4491,3.4516,3.4521,3.4532,3.4551,3.4566,3.4588,3.4608,3.462,3.4635,3.4654,3.4682,3.4678,3.469,3.4693,3.4709,3.4737,3.4702,3.4703,3.4709,3.4775,3.4779,3.4784,3.4737,3.4738,3.4738,3.4774,0,3.4519,3.4556,3.4562,3.4595,3.4613,3.4614,3.4634,3.4648,3.4657,3.4674,3.4684,3.4704,3.4697,3.4704,3.472,3.473,3.4751,3.4728,3.4755,3.4756,3.4751,3.479,3.4794,3.4827,3.4779,3.478,3.478,0,3.4555,3.4572,3.4607,3.4627,3.4635,3.4651,3.4672,3.4689,3.4707,3.4712,3.4727,3.4729,3.4754,3.4741,3.4776,3.476,3.4773,3.478,3.4781,3.4784,3.4769,3.4794,3.4837,3.4842,3.4788,3.4787,3.4786,0,3.4573,3.4605,3.463,3.4639,3.4662,3.4675,3.4685,3.4702,3.4715,3.4734,3.4743,3.4764,3.4776,3.4793,3.4802,3.4792,3.4837,3.4825,3.4843,3.4843,3.4851,3.485,3.4897,3.4859,3.4859,3.4859,3.4859,0,3.4603,3.4624,3.4639,3.4655,3.468,3.4688,3.4713,3.4723,3.4739,3.4758,3.4761,3.4779,3.479,3.481,3.4817,3.4846,3.4851,3.4857,3.4858,3.4856,3.4856,3.4864,3.4862,3.486,3.486,3.486,3.486,0,3.4626,3.4636,3.4665,3.4685,3.4691,3.4709,3.4727,3.4743,3.4753,3.4777,3.4783,3.4798,3.4822,3.4833,3.4863,3.4868,3.4901,3.4901,3.4895,3.4895,3.4913,3.4911,3.4966,3.4974,3.4931,3.4931,3.4931,0,3.4644,3.4661,3.4684,3.4697,3.4707,3.4728,3.4742,3.4752,3.4766,3.479,3.4804,3.4828,3.4848,3.4887,3.4901,3.4925,3.4925,3.4943,3.4929,3.4927,3.4927,3.4925,3.4928,3.4945,3.4946,3.4946,3.4946,0,3.4675,3.4681,3.47,3.4722,3.4739,3.4757,3.4775,3.4785,3.4798,3.4815,3.484,3.4856,3.4887,3.4912,3.4937,3.4949,3.4951,3.4951,3.4957,3.4954,3.495,3.4954,3.4902,3.495,3.4949,3.4949,3.4949,3.4949,3.4697,3.4713,3.4732,3.4754,3.4769,3.4786,3.4803,3.4816,3.4837,3.4863,3.4868,3.4895,3.4916,3.495,3.4963,3.4985,3.4981,3.4989,3.4991,3.4993,3.4994,3.4948,3.499,3.499,3.499,3.499,3.499,0,3.4729,3.4742,3.4763,3.4788,3.4807,3.4807,3.4828,3.4843,3.4867,3.4886,3.4906,3.4936,3.4961,3.4979,3.5005,3.5019,3.5021,3.5026,3.5024,3.5028,3.4996,3.4989,3.5024,3.5024,3.5024,3.5024,3.5024,3.5024,3.4747,3.4775,3.4783,3.4819,3.4832,3.4859,3.4871,3.4888,3.4903,3.4936,3.4957,3.4969,3.4988,3.5016,3.504,3.5044,3.5054,3.5059,3.5064,3.5033,3.503,3.5026,3.5019,3.5061,3.5061,3.5094,3.5094,3.5094]},{"header":{"parameterUnit":"m.s-1","parameterCategory":1,"la1":30.2991,"la2":30.254,"lo1":-89.0895,"lo2":-89.0444,"dy":0.0017,"dx":0.0017,"nx":28,"ny":28,"refTime":"2023-03-30T21:00:00:Z","depth":0,"parameterNumber":3,"parameterNumberName":"V-component_of_WINDS"},"data":[0,0,0,0,0,0,0,0,0,0,0,0,0,0,0,0,0,0,0,0,0,0,0,0,0,0,0,0,0,0,0,0,0,0,0,0,0,0,0,0,0,0,0,0,0,0,0,0,0,0,0,0,0,0,0,0,0,0,3.0358,3.036,0,3.0477,3.0479,3.048,3.0488,3.0487,3.0486,3.0485,3.0604,3.0609,3.0613,0,0,0,0,0,0,0,0,0,0,0,0,0,3.0135,3.0139,3.0358,3.036,3.0361,3.0477,3.0479,3.048,3.0489,3.0487,3.0485,3.0484,3.0603,3.0608,3.0613,0,0,0,0,0,0,0,0,0,0,0,0,0,3.0241,3.0141,3.0358,3.0379,3.0382,3.0477,3.0479,3.0481,3.0489,3.0487,3.0485,3.0483,3.0601,3.0608,3.0614,3.0695,0,0,3.0634,3.0637,0,0,0,0,0,0,0,0,3.0235,3.0249,3.0375,3.0378,3.0382,3.0466,3.0444,3.0552,3.049,3.0449,3.0485,3.0482,3.056,3.057,3.0596,3.07,3.0705,3.0635,3.0639,3.0642,3.0644,0,0,0,0,0,0,0,3.0228,3.0244,3.0405,3.0377,3.0381,3.0382,3.0395,3.0465,3.0514,3.0452,3.0453,3.0467,3.0561,3.059,3.0599,3.0707,3.0635,3.0641,3.0645,3.0647,3.0881,3.0883,0,0,0,0,0,0,3.0217,3.0238,3.0402,3.0409,3.0302,3.0388,3.0402,3.0441,3.0513,3.0522,3.0468,3.0467,3.058,3.0591,3.0603,3.0701,3.0642,3.0648,3.0652,3.0879,3.0882,3.0884,0,0,0,0,0,0,3.0212,3.0231,3.0397,3.0324,3.0345,3.0394,3.0437,3.0444,3.0473,3.0526,3.0534,3.0489,3.0579,3.0594,3.0672,3.0705,3.0651,3.0657,3.0877,3.088,3.0883,3.0898,0,0,0,0,0,0,3.0205,3.0229,3.0261,3.0324,3.0349,3.0464,3.0439,3.0448,3.0485,3.0484,3.0547,3.0555,3.0578,3.0662,3.0678,3.0714,3.0662,3.0874,3.0878,3.0882,3.0894,3.0901,3.0907,0,0,0,0,0,3.0197,3.026,3.0263,3.0282,3.039,3.0466,3.048,3.0505,3.0487,3.0519,3.0553,3.0553,3.0699,3.067,3.0688,3.0726,3.0872,3.0877,3.0882,3.0892,3.09,3.0907,0,0,0,0,0,0,3.0199,3.0269,3.0272,3.0358,3.0406,3.0467,3.0508,3.0513,3.0567,3.0563,3.0592,3.0606,3.0682,3.0712,3.0678,3.0807,3.0783,3.0792,3.0784,3.0793,3.0799,3.0789,3.0668,0,0,0,0,0,3.0209,3.0266,3.0324,3.0394,3.0418,3.0459,3.0493,3.0508,3.0559,3.0579,3.0618,3.0667,3.0723,3.076,3.0815,3.0899,3.0912,3.0934,3.094,3.0945,3.0952,3.0997,3.1007,3.0901,3.0901,3.0901,0,0,3.0231,3.0276,3.031,3.0395,3.0434,3.0491,3.0476,3.0537,3.0579,3.0588,3.0663,3.0694,3.075,3.0831,3.0868,3.0858,3.0985,3.0952,3.0955,3.096,3.1003,3.1013,3.1022,3.0904,3.0904,3.0903,0,0,3.0299,3.034,3.0402,3.0442,3.0501,3.0528,3.0543,3.0604,3.0624,3.0701,3.0708,3.0758,3.0856,3.0895,3.0927,3.101,3.1012,3.1027,3.1059,3.1103,3.1111,3.1119,3.1147,3.1157,3.1034,3.1034,3.1034,0,3.0319,3.0406,3.0433,3.0494,3.0531,3.0542,3.0604,3.0641,3.0715,3.0739,3.0727,3.0849,3.0887,3.0976,3.0997,3.1023,3.104,3.102,3.1108,3.1116,3.1123,3.115,3.1161,3.1036,3.1036,3.1035,3.1035,0,3.0426,3.0486,3.0529,3.06,3.0642,3.0703,3.0739,3.0777,3.0789,3.0817,3.0893,3.094,3.1004,3.1027,3.1039,3.1118,3.1109,3.1102,3.1079,3.1134,3.116,3.1171,3.1038,3.1037,3.1037,3.1036,0,0,3.0497,3.0584,3.0599,3.0631,3.0697,3.0744,3.0805,3.0869,3.09,3.0951,3.1002,3.1084,3.1078,3.1115,3.1132,3.117,3.1231,3.1158,3.116,3.1169,3.1318,3.1322,3.1333,3.1233,3.1235,3.1237,3.1313,0,3.0572,3.0682,3.0708,3.0802,3.0857,3.0869,3.0922,3.0968,3.0996,3.1046,3.1076,3.1133,3.1121,3.1143,3.1182,3.1215,3.1261,3.121,3.1279,3.1281,3.1263,3.1347,3.1352,3.1421,3.1323,3.1325,3.1326,0,3.0673,3.0726,3.0826,3.0885,3.0909,3.0956,3.1016,3.1064,3.1116,3.1133,3.1174,3.1187,3.125,3.1225,3.1311,3.1276,3.1306,3.1326,3.133,3.1336,3.1306,3.1354,3.1444,3.1454,3.1343,3.1341,3.134,0,3.0713,3.081,3.0882,3.0909,3.098,3.1013,3.1043,3.1094,3.113,3.1182,3.1205,3.1264,3.1295,3.134,3.1367,3.1346,3.1451,3.1428,3.1465,3.1465,3.1486,3.1484,3.158,3.1508,3.1508,3.1507,3.1507,0,3.0792,3.0852,3.0901,3.0944,3.1012,3.1041,3.1106,3.1137,3.1182,3.1231,3.1245,3.1291,3.1325,3.1375,3.1398,3.1465,3.1479,3.1494,3.1499,3.1492,3.149,3.1511,3.1506,3.151,3.151,3.1509,3.1508,0,3.0847,3.0883,3.0961,3.1022,3.1039,3.1085,3.1137,3.1179,3.1207,3.1269,3.1286,3.1329,3.1389,3.1422,3.1496,3.1511,3.1586,3.1589,3.1568,3.157,3.1605,3.1601,3.1717,3.1733,3.1651,3.1652,3.1653,0,3.0895,3.0941,3.1007,3.1041,3.1073,3.1128,3.1165,3.1196,3.1234,3.1296,3.1331,3.1392,3.1442,3.1537,3.1574,3.1631,3.1635,3.1672,3.1643,3.1635,3.1633,3.163,3.1634,3.1676,3.1677,3.1677,3.1678,0,3.0974,3.099,3.1043,3.1103,3.1147,3.1195,3.1242,3.1269,3.1308,3.1349,3.1411,3.145,3.1527,3.1586,3.1646,3.1676,3.1683,3.1687,3.1698,3.1691,3.1676,3.1683,3.158,3.1684,3.1683,3.1683,3.1682,3.1682,3.1026,3.1067,3.112,3.1179,3.1218,3.1262,3.1305,3.1339,3.1391,3.1456,3.1471,3.1536,3.1586,3.1667,3.17,3.175,3.1742,3.1759,3.1763,3.1767,3.1767,3.167,3.1761,3.1761,3.1761,3.1761,3.176,0,3.1105,3.114,3.1194,3.126,3.1306,3.131,3.1363,3.14,3.1458,3.1504,3.1553,3.1624,3.1682,3.1724,3.1783,3.1815,3.1819,3.1829,3.1826,3.1833,3.1771,3.1755,3.1824,3.1824,3.1824,3.1824,3.1824,3.1824,3.1151,3.1221,3.1243,3.1332,3.1366,3.143,3.146,3.15,3.1537,3.1616,3.1664,3.1692,3.1737,3.1799,3.1852,3.1862,3.1883,3.1892,3.1903,3.1844,3.1837,3.1831,3.1815,3.1896,3.1897,3.196,3.1961,3.1961]}]]